Starlink 32916

operational
NORAD ID: 62922 Int'l Des: 2025-027 Owner: SPXS Country: US Constellation: starlink
LEOCIRCULAR

About Starlink 32916

Description loading...

Live Position

Loading 3D Globe...

Upcoming Passes

Altitude History

Altitude vs Time

uPlot chart will show altitude changes over time

Two-Line Element Set

1 62922U 25027R 25257.41037674 .00021435 00000-0 78572-3 0 9997
2 62922 43.0046 44.3119 0005988 285.9857 74.0335 15.27587463 34586
Epoch: Sep 14, 2025 • Age: 19 hours

Current Status

Altitude 485.0 km
Velocity 7.63 km/s
Sub-Earth Point 28.96°N, 8.45°E
Launch Date Feb 8, 2025
Age 0.5 years
Type internet

Technical Details

Classification Payload
Mass 730.00 kg
Dry Mass 700.00 kg
Total Mass 730.00 kg
Length 0.30 m
Diameter 4.10 m
Span 29.00 m
Shape Box + pan
Manufacturer SPXS
Bus Type Starlink V2M
Phase Status In Orbit
Owner/State SPXS/US

Large Constellations

Loading constellations...